STARLINK-31976, 59887

Orbit data source: Space-Track

STARLINK-31976, 59887 is a payload satellite owned by SpaceX/Seattle (US) in LEO that was launched on Tue, 28 May 2024 UTC via an FALCON 9 launch vehicle from the Air Force Eastern Test Range (AFETR). Payload-class satellites include a variety of spacecraft equipped with specific instruments for various scientific and technological missions. These include communications satellites like Starlink; space stations such as the ISS; scientific satellites like the Hubble; Earth observation satellites from companies like Planet Labs, Umbra, and HawkEye 360; GPS; miniature CubeSats for education and research; and military/defense satellites.

Loading next visibility...
Identifier
59887, 2024-100C
Orbit
LEO
Country
Flag of USUS
Related business
Manufacturer
SpaceX/Seattle
Mission
Operational Commercial Communications
Bus & Motor
STARLINK V2M, Unknown motor
Mass
730 kg wet, ~700 kg dry
Launch date (UTC)
2024-05-28 (2 years ago)
Launch vehicle
FALCON 9
Launch site
Air Force Eastern Test Range (AFETR)
Object type
Payload
Rocket body
Debris
Shape & HBR
Box + 2 Pan, 17.7 m
Radar Cross Section
33.884 m², Large (>1 m²)

Expand to show TLE details & history
Last TLE update: 2 days ago

TLE from 2 days ago
0 STARLINK-31976
1 59887U 24100C   26171.29774927  .00000103  00000-0  13273-4 0  9992
2 59887  42.9999 269.8545 0001332 275.2893  84.7806 15.27570904116804
Epoch: 2026-06-20T07:08Z
TLE epoch observation values (Epoch: 2026-06-20T07:08:45.536Z)
Latitude
-0.00008°
Longitude
-105.84971°
Altitude
482.769 km
Speed
7.626 km/s
True Right ascension
17h 59m 25s
True Declination
0° 00' 00"
Sunlit
Object was in full shadow at epoch
Visualization orbit readout
Latitude
Unknown
Longitude
Unknown
Altitude
Unknown
Speed
Unknown
Apparent Right ascension
Unknown
Apparent Declination
Unknown
Sunlit
N/A
Visualization observer readout
Local Sidereal Time
21:57:40
Azimuth
Unknown
Elevation
Unknown
Doppler factor
Unknown
Orbital elements
Apogee altitude
485.936 km
Perigee altitude
484.107 km
Semi-major axis
6,863.159 km
Eccentricity
0.00013
Inclination
42.9999°
RAAN
269.8545°
Arg. of periapsis
275.2893°
True anomaly
84.7958°
Mean anomaly
84.7806°
Eccentric anomaly
84.7882°
Mean motion
3.81731 °/min
Orbital period
94.31 mins
BSTAR
0.000013273
Loading maneuver chart data...
Computing Atmospheric mass density...
Loading historical data...
Loading historical data...
Loading historical data...
Loading historical data...
Loading historical data...
Loading historical data...
Loading historical data...

Documentation

Showing up to 5 results
|